Terminal Aerodrome Forecast
Issued by NWS Boise, ID

Home | Current Version | Previous Version | Text Only | Print | Product List | Glossary On
Versions: 1 2 3 4 5 6 7 8 9 10 11 12 13 14 15 16 17 18 19 20 21 22 23 24 25 26 27 28 29 30 31 32 33 34 35 36 37 38
000
FTUS45 KBOI 100408 AAB
TAFBNO
TAF AMD
KBNO 100408Z 1004/1024 00000KT 1/2SM FZFG BKN250
     FM100600 00000KT 1/4SM FZFG VV002
     FM101700 VRB03KT P6SM FEW005=

USA.gov is the U.S. government's official web portal to all federal, state and local government web resources and services.